GW5201 Weather Reports


time (UTC)temp
C
wind
direction
speed
KPH
gust
KPH
rain 1hr
cm
rain 24hr
cm
rain mn
cm
humidity
%
barometer
mb
20260505065403 12 0 0.0 0.0 0.00 0.00 0.00 82 1011.1
20260505064503 12 0 0.0 0.0 0.00 0.00 0.00 81 1011.1
20260505063603 12 0 0.0 0.0 0.00 0.00 0.00 80 1011.1
20260505062703 12 51 0.0 1.6 0.00 0.00 0.00 79 1011.0
20260505062017 12 0 0.0 0.0 0.00 0.00 0.00 78 1011.0
20260505060903 12 0 0.0 0.0 0.00 0.00 0.00 78 1011.1
20260505060003 12 0 0.0 0.0 0.00 0.00 0.00 77 1011.0
20260505055403 13 0 0.0 0.0 0.00 0.00 0.00 76 1011.1
20260505054503 13 0 0.0 0.0 0.00 0.00 0.00 75 1011.2
20260505053603 13 0 0.0 0.0 0.00 0.00 0.00 72 1011.2
20260505052703 13 51 0.0 1.6 0.00 0.00 0.00 72 1011.1
20260505051803 14 51 0.0 1.6 0.00 0.00 0.00 70 1011.3
20260505050903 14 51 0.0 1.6 0.00 0.00 0.00 69 1011.3
20260505040903 15 169 1.6 6.4 0.00 0.00 0.00 60 1011.0
20260505040004 15 140 0.0 4.8 0.00 0.00 0.00 59 1011.0
20260505035403 15 149 0.0 3.2 0.00 0.00 0.00 59 1011.0
20260505034503 16 154 0.0 3.2 0.00 0.00 0.00 57 1011.0
20260505033603 16 147 0.0 3.2 0.00 0.00 0.00 56 1011.0
20260505032703 16 123 1.6 4.8 0.00 0.00 0.00 56 1011.1
20260505031803 16 111 1.6 8.0 0.00 0.00 0.00 56 1011.0
20260505030903 16 144 1.6 8.0 0.00 0.00 0.00 56 1011.2
20260505030003 16 148 1.6 8.0 0.00 0.00 0.00 56 1011.1
20260505025403 16 136 1.6 6.4 0.00 0.00 0.00 56 1011.1
20260505024503 16 123 1.6 6.4 0.00 0.00 0.00 58 1011.3
20260505023603 15 126 0.0 4.8 0.00 0.00 0.00 60 1011.4
20260505022703 15 236 0.0 4.8 0.00 0.00 0.00 61 1011.6
20260505021803 15 71 0.0 1.6 0.00 0.00 0.00 59 1011.6
20260505020903 16 114 0.0 3.2 0.00 0.00 0.00 58 1011.5
20260505020003 16 0 0.0 0.0 0.00 0.00 0.00 56 1011.5
20260505015403 16 104 0.0 3.2 0.00 0.00 0.00 57 1011.5
20260505014503 16 111 0.0 1.6 0.00 0.00 0.00 56 1011.4
20260505013603 16 59 0.0 1.6 0.00 0.00 0.00 57 1011.4
20260505012703 16 50 0.0 3.2 0.00 0.00 0.00 55 1011.4
20260505011803 17 66 0.0 3.2 0.00 0.00 0.00 54 1011.4
20260505010903 17 137 0.0 3.2 0.00 0.00 0.00 52 1011.2
20260505010003 17 137 0.0 4.8 0.00 0.00 0.00 52 1011.1
20260505005403 17 165 0.0 3.2 0.00 0.00 0.00 50 1011.0
20260505004503 17 108 0.0 4.8 0.00 0.00 0.00 50 1011.1
20260505003816 17 103 0.0 4.8 0.00 0.00 0.00 50 1010.9
20260505002703 18 62 0.0 3.2 0.00 0.00 0.00 47 1010.8
20260505001803 18 122 0.0 1.6 0.00 0.00 0.00 46 1010.6
20260505001118 18 125 0.0 3.2 0.00 0.00 0.00 45 1010.7
20260505000003 19 209 0.0 1.6 0.00 0.00 0.00 44 1010.5
20260504235617 19 137 0.0 4.8 0.00 0.00 0.00 44 1010.5
20260504234503 20 105 1.6 6.4 0.00 0.00 0.00 43 1010.4
20260504233603 20 170 1.6 6.4 0.00 0.00 0.00 44 1010.4
20260504232703 20 82 0.0 3.2 0.00 0.00 0.00 42 1010.4
20260504231803 20 103 1.6 9.7 0.00 0.00 0.00 42 1010.4
20260504230903 21 119 3.2 9.7 0.00 0.00 0.00 39 1010.4
20260504230003 20 112 1.6 8.0 0.00 0.00 0.00 40 1010.4
20260504225403 21 93 1.6 4.8 0.00 0.00 0.00 43 1010.4
20260504224503 21 92 1.6 9.7 0.00 0.00 0.00 40 1010.4
20260504223603 21 131 1.6 9.7 0.00 0.00 0.00 38 1010.4
20260504222919 21 123 1.6 8.0 0.00 0.00 0.00 39 1010.5
20260504221803 21 108 3.2 8.0 0.00 0.00 0.00 38 1010.5
20260504220903 21 126 3.2 9.7 0.00 0.00 0.00 37 1010.5
20260504220003 21 135 3.2 11.3 0.00 0.00 0.00 37 1010.5
20260504215616 21 123 3.2 9.7 0.00 0.00 0.00 37 1010.6
20260504214503 21 124 3.2 12.9 0.00 0.00 0.00 36 1010.6
20260504213819 21 118 3.2 12.9 0.00 0.00 0.00 37 1010.6
20260504212703 21 99 3.2 11.3 0.00 0.00 0.00 36 1010.7
20260504211803 21 129 4.8 16.1 0.00 0.00 0.00 36 1010.6
20260504210903 21 129 4.8 12.9 0.00 0.00 0.00 35 1010.6
20260504210003 21 89 3.2 11.3 0.00 0.00 0.00 36 1010.6
20260504205403 21 142 3.2 11.3 0.00 0.00 0.00 36 1010.6
20260504204503 22 123 3.2 12.9 0.00 0.00 0.00 35 1010.6
20260504203603 22 104 3.2 9.7 0.00 0.00 0.00 36 1010.7
20260504202703 22 82 3.2 12.9 0.00 0.00 0.00 35 1010.8
20260504201803 22 132 4.8 14.5 0.00 0.00 0.00 36 1010.9
20260504200903 22 106 4.8 12.9 0.00 0.00 0.00 38 1011.0
20260504200003 22 129 4.8 16.1 0.00 0.00 0.00 35 1011.0
20260504195403 22 110 4.8 14.5 0.00 0.00 0.00 35 1011.1
20260504194503 22 50 3.2 14.5 0.00 0.00 0.00 35 1011.2
20260504193603 23 73 3.2 9.7 0.00 0.00 0.00 34 1011.1
20260504192703 23 106 3.2 11.3 0.00 0.00 0.00 34 1011.3
20260504192017 22 121 4.8 12.9 0.00 0.00 0.00 37 1011.5
20260504190903 22 129 3.2 16.1 0.00 0.00 0.00 33 1011.6
20260504190003 22 147 4.8 19.3 0.00 0.00 0.00 35 1011.5
20260504185403 22 133 4.8 19.3 0.00 0.00 0.00 32 1011.6
20260504184503 22 126 6.4 17.7 0.00 0.00 0.00 34 1011.7
20260504183818 22 89 6.4 17.7 0.00 0.00 0.00 35 1011.7
20260504182917 22 57 3.2 17.7 0.00 0.00 0.00 37 1012.0
20260504182017 22 64 3.2 17.7 0.00 0.00 0.00 32 1012.0
20260504181116 22 118 3.2 9.7 0.00 0.00 0.00 33 1012.2
20260504180003 22 121 3.2 12.9 0.00 0.00 0.00 34 1012.3
20260504175403 22 84 4.8 14.5 0.00 0.00 0.00 35 1012.3
20260504174503 22 110 3.2 14.5 0.00 0.00 0.00 35 1012.4
20260504173603 22 86 3.2 11.3 0.00 0.00 0.00 37 1012.6
20260504172703 22 124 3.2 12.9 0.00 0.00 0.00 38 1012.8
20260504172016 21 121 4.8 12.9 0.00 0.00 0.00 38 1012.7
20260504170903 21 142 4.8 17.7 0.00 0.00 0.00 34 1012.8
20260504151119 19 0 0.0 0.0 0.00 0.00 0.00 40 1014.2
20260504140903 17 0 0.0 0.0 0.00 0.00 0.00 50 1014.4
20260504100216 6 332 0.0 0.0 0.00 0.00 0.00 84 1015.7
20260504081803 7 37 0.0 1.6 0.00 0.00 0.00 75 1015.5
20260504080903 7 0 0.0 0.0 0.00 0.00 0.00 75 1015.5